Current Version              Previous Version:    01  02  03  04  05  06  07  08  09  10  11  12  13  14  15  16  17  18  19  20  21  22  23  24  25  26  27  28  29  30  
   31  32  33  34  35  36  37  38  39  40  41  42  43  44  45  46  47  48  49  50  51  52  53  54  55  56  57  58  59  60  

[Printable]
965
ASUS44 KFWD 232115
RWRTX
NORTH TEXAS HOURLY WEATHER ROUNDUP
NATIONAL WEATHER SERVICE FORT WORTH TX
300 PM CST SUN NOV 23 2014

NOTE: "FAIR" INDICATES FEW OR NO CLOUDS BELOW 12,000 FEET WITH NO
SIGNIFICANT WEATHER AND/OR OBSTRUCTIONS TO VISIBILITY.

TXZ118-119-232200-
DALLAS/FORT WORTH METROPLEX

CITY           SKY/WX    TMP DP  RH WIND       PRES   REMARKS
DFW AIRPORT    MOSUNNY   75  34  22 W24G33    29.39S
DALLAS LOVE    MOSUNNY   77  41  27 W17       29.38F
FTW MEACHAM    SUNNY     76  36  23 W24G35    29.40R
DAL-EXECUTIVE  SUNNY     79  38  22 W15G30    29.39F
FTW-ALLIANCE   MOSUNNY   75  34  22 W20G31    29.40R
FTW-SPINKS     SUNNY     77  36  22 W25G37    29.44R
ARLINGTON      SUNNY     78  32  18 W17G33    29.41S
GRAND PRAIRIE  SUNNY     79  37  22 W20G30    29.42S
ADDISON        MOSUNNY   77  36  22 W15G23    29.39F
MESQUITE       SUNNY     75  41  29 SW13      29.40F
LANCASTER      SUNNY     77  36  23 W20       29.41S
$$

TXZ091>094-102>105-117-120-121-131>134-232200-
NORTH CENTRAL TEXAS

CITY           SKY/WX    TMP DP  RH WIND       PRES   REMARKS
SHRMAN/DENISON SUNNY     75  42  31 SW24      29.36R
GAINESVILLE    SUNNY     72  37  27 W22G36    29.39R
BOWIE          SUNNY     71  38  30 W24G38    29.43R
BRIDGEPORT     SUNNY     74  40  28 W23G32    29.44R
DECATUR        SUNNY     73  37  26 W18G28    29.41R
DENTON         MOSUNNY   74  34  23 W24G38    29.37S
MCKINNEY       SUNNY     75  40  28 W15G28    29.38S
GREENVILLE     SUNNY     73  41  31 SW18G25   29.38S
ROCKWALL       SUNNY     75  43  31 W18G28    29.38S
TERRELL        SUNNY     77  45  32 W16G24    29.39F
WAXAHACHIE     SUNNY     77  42  28 W20G26    29.42S
CLEBURNE       SUNNY     75  43  31 SW14G22   29.45S
GRANBURY       SUNNY     77  40  26 W17G25    29.45S
$$

TXZ083>090-098>101-113>116-127>130-139>142-154-155-232200-
WESTERN NORTH TEXAS

CITY           SKY/WX    TMP DP  RH WIND       PRES   REMARKS
WICHITA FALLS  PTSUNNY   61  46  57 NW24G39   29.45R
WF-KICKAPOO    MOSUNNY   65  44  47 W25G37    29.47R
VERNON         CLOUDY    61  39  44 NW26G33   29.54R
ABILENE        PTSUNNY   72  35  25 NW23G29   29.53R
ABILENE-DYESS  SUNNY     70  32  24 NW22G32   29.53R
BRECKENRIDGE   SUNNY     71  36  27 NW22G31   29.50R HAZE
GRAHAM         SUNNY     69  43  39 W21G30    29.48R
MINERAL WELLS  SUNNY    N/A N/A N/A W29G37    29.43R
STEPHENVILLE   SUNNY     74  37  26 W16G28    29.49S
COMANCHE       SUNNY     74  40  29 W15G33    29.50R
BROWNWOOD      SUNNY     73  36  25 W21G32    29.51S
COLEMAN        SUNNY     74  39  28 W21G29    29.54F
BRADY          SUNNY     75  34  22 W18       29.56R
$$

TXZ143>147-156>162-174-175-232200-
CENTRAL TEXAS

CITY           SKY/WX    TMP DP  RH WIND       PRES   REMARKS
WACO           SUNNY     78  40  25 W17G29    29.45F
WACO-TSTC      SUNNY     81  39  22 SW17G25   29.46S
WACO-MCGREGOR  SUNNY     77  48  36 W13G24    29.47F
HILLSBORO      SUNNY     76  41  29 W18G28    29.45S
CORSICANA      SUNNY     77  44  30 SW20G28   29.44R
MEXIA          SUNNY     77  46  33 SW16G24   29.45R
HEARNE         SUNNY     79  46  30 SW16G23   29.50S
CAMERON        SUNNY     80  41  25 W15G30    29.48S
TEMPLE         SUNNY     79  43  27 W20       29.48S
KILLEEN        SUNNY     77  38  25 SW17G26   29.50F
KILLEEN-SKYLRK SUNNY     79  39  24 W22       29.48F
FORT HOOD      SUNNY     81  37  20 W21G29    29.49F
GATESVILLE     SUNNY     77  37  24 W22G29    29.49F
HAMILTON       SUNNY     75  37  24 W24G31    29.50S
LAMPASAS       SUNNY     76  41  28 W14G23    29.52S
$$

TXZ095>097-106>112-122>126-135>138-148>153-164>167-232200-
EAST TEXAS

CITY           SKY/WX    TMP DP  RH WIND       PRES   REMARKS
PARIS          SUNNY     72  55  56 SW18      29.35S
SULPHUR SPRNGS SUNNY     74  49  41 SW23G31   29.39F
MOUNT PLEASANT SUNNY     73  54  52 S15G22    29.39F
MINEOLA        SUNNY     75  46  35 SW14G21   29.41R
TYLER          SUNNY     76  50  40 SW12G23   29.41S
LONGVIEW       SUNNY     74  55  51 SW16G24   29.41S
MARSHALL       SUNNY     73  56  55 SW14G20   29.43S
ATHENS         SUNNY     73  45  35 SW13G20   29.42R
PALESTINE      SUNNY     77  46  32 SW17G23   29.46R
JACKSONVILLE   SUNNY     75  47  37 SW12G23   29.45F
HENDERSON      SUNNY     73  53  48 S12G20    29.43F
NACOGDOCHES    SUNNY     73  54  49 SW13G18   29.46F
LUFKIN         SUNNY     78  52  40 SW15G22   29.47F
$$

SUPPLEMENTAL OBSERVATIONS (CENTRAL)

CITY           SKY/WX    TMP DP  RH WIND       PRES   REMARKS
LAKE TEXOMA      N/A     73  39  29 W20         N/A
PAT MAYSE LAKE   N/A     70  50  49 S20         N/A
ATHENS           N/A     77  45  31 SW7G16      N/A
PALESTINE        N/A     79  45  29 SW6G20      N/A
MCGREGOR         N/A     79  43  27 W20G25      N/A
TEMPLE           N/A     79  43  27 SW8G22      N/A
$$

SUPPLEMENTAL OBSERVATIONS (WEST)

CITY           SKY/WX    TMP DP  RH WIND       PRES   REMARKS
MILLERS CREEK    N/A     64  46  52 NW26G35     N/A
POSSUM KINGDOM   N/A     70  37  30 NW21G32     N/A
GRANBURY         N/A     77  39  25 W17G30      N/A
HAMBY            N/A     70  34  26 NW20G35     N/A
COLORADO BEND    N/A     77  34  20 W14G24      N/A
$$

SUPPLEMENTAL OBSERVATIONS (EAST)

CITY           SKY/WX    TMP DP  RH WIND       PRES   REMARKS
TEXARKANA        N/A     73  59  60 S5G15       N/A
LINDEN           N/A     73  54  49 SW8G17      N/A
CADDO LAKE       N/A     75  57  53 SW5G13      N/A
LUFKIN           N/A     79  52  38 MISG        N/A
N SABINE NF      N/A     73  57  56 MISG        N/A
$$

SUPPLEMENTAL OBSERVATIONS ARE A COLLECTION OF AUTOMATED INSTRUMENTS
THAT ARE MAINTAINED BY A VARIETY OF FEDERAL AND STATE AGENCIES.
CERTAIN ELEMENTS...SUCH AS HUMIDITY VALUES AND SUSTAINED WIND
SPEEDS...MAY BE APPROXIMATED.